STARLINK BH

Last updated on June 19, 2020, 12:02 a.m. UTC

1 45785U 20038BH  20170.75001157  .00114664  11274-4  14240-3 0  9993
2 45785  52.9999 271.8086 0111368  69.6416 146.9625 15.96143943  1951

Satellite is not in orbit.